When you browse on this site, cookies collect data to enhance your experience and personalize the content and advertising you see.
Visit our Privacy Policy to learn more. By continuing to use the site, you agree to this use of cookies and data.
  • In Portugal
  • List of Countries
  • For 7 days
  • Water Temperature
  • Satellite Maps
  • Weather Map
  • Weather Widgets
  • user-avatar
    Login

    Hourly Weather Shusha

    Today, 17 January, Thursday

    Time Temperature Precipitation Wind Pressure Humidity
    00:00 +2°C° 0 mm 2 mps 649 mmHg 40%
    01:00 +2°C° 0 mm 2 mps 649 mmHg 40%
    02:00 +3°C° 0 mm 1 mps 649 mmHg 40%
    03:00 +3°C° 0 mm 1 mps 649 mmHg 41%
    04:00 +3°C° 0.1 mm 1 mps 649 mmHg 46%
    05:00 +2°C° 0.1 mm 1 mps 649 mmHg 52%
    06:00 +2°C° 0.1 mm 1 mps 649 mmHg 58%
    07:00 +2°C° 0.1 mm 1 mps 649 mmHg 63%
    08:00 +2°C° 0.1 mm 1 mps 649 mmHg 67%
    09:00 +2°C° 0.1 mm 1 mps 650 mmHg 72%
    10:00 +1°C° 0.1 mm 2 mps 650 mmHg 74%
    11:00 +1°C° 0.1 mm 2 mps 650 mmHg 77%
    12:00 +2°C° 0.1 mm 2 mps 650 mmHg 79%
    13:00 +1°C° 0.4 mm 2 mps 650 mmHg 80%
    14:00 +1°C° 0.4 mm 2 mps 650 mmHg 81%
    15:00 -1°C° 0.4 mm 3 mps 650 mmHg 82%
    16:00 -1°C° 0.3 mm 2 mps 651 mmHg 84%
    17:00 -2°C° 0.3 mm 2 mps 651 mmHg 86%
    18:00 0°C° 0.3 mm 1 mps 652 mmHg 88%
    19:00 0°C° 0.3 mm 1 mps 653 mmHg 88%
    20:00 0°C° 0.3 mm 1 mps 653 mmHg 89%
    21:00 0°C° 0.3 mm 1 mps 654 mmHg 89%
    22:00 -1°C° 0.3 mm 1 mps 654 mmHg 90%
    23:00 -1°C° 0.3 mm 1 mps 655 mmHg 90%

    Tomorrow, 18 January, Friday

    Time Temperature Precipitation Wind Pressure Humidity
    00:00 -1°C° 0.3 mm 1 mps 655 mmHg 91%
    01:00 -1°C° 0.4 mm 1 mps 656 mmHg 91%
    02:00 -1°C° 0.4 mm 1 mps 656 mmHg 92%
    03:00 -1°C° 0.4 mm 1 mps 656 mmHg 93%
    04:00 -2°C° 0.3 mm 0 mps 657 mmHg 92%
    05:00 -2°C° 0.3 mm 0 mps 657 mmHg 91%
    06:00 -3°C° 0.3 mm 0 mps 657 mmHg 91%
    07:00 -2°C° 0.4 mm 0 mps 658 mmHg 89%
    08:00 -1°C° 0.4 mm 1 mps 659 mmHg 87%
    09:00 -1°C° 0.4 mm 1 mps 659 mmHg 85%
    10:00 0°C° 0.2 mm 1 mps 659 mmHg 82%
    11:00 0°C° 0.2 mm 1 mps 659 mmHg 79%
    12:00 +1°C° 0.2 mm 1 mps 660 mmHg 76%
    13:00 -1°C° 0.1 mm 2 mps 659 mmHg 75%
    14:00 -1°C° 0.1 mm 2 mps 659 mmHg 74%
    15:00 -1°C° 0.1 mm 2 mps 659 mmHg 73%
    16:00 0°C° 0 mm 1 mps 660 mmHg 76%
    17:00 0°C° 0 mm 1 mps 660 mmHg 80%
    18:00 -1°C° 0 mm 1 mps 660 mmHg 83%
    19:00 -1°C° 0 mm 1 mps 660 mmHg 83%
    20:00 -2°C° 0 mm 1 mps 660 mmHg 82%
    21:00 -2°C° 0 mm 1 mps 661 mmHg 81%
    22:00 -2°C° 0 mm 1 mps 661 mmHg 79%
    23:00 -2°C° 0 mm 1 mps 661 mmHg 77%

    Day after tomorrow, 19 January, Saturday

    Time Temperature Precipitation Wind Pressure Humidity
    00:00 -3°C° 0 mm 1 mps 661 mmHg 74%
    01:00 -3°C° 0 mm 1 mps 661 mmHg 72%
    02:00 -3°C° 0 mm 1 mps 660 mmHg 70%
    03:00 -3°C° 0 mm 1 mps 660 mmHg 67%
    04:00 -3°C° 0 mm 1 mps 660 mmHg 66%
    05:00 -3°C° 0 mm 1 mps 660 mmHg 65%
    06:00 -4°C° 0 mm 1 mps 660 mmHg 64%
    07:00 -2°C° 0 mm 1 mps 660 mmHg 61%
    08:00 -1°C° 0 mm 1 mps 661 mmHg 58%
    09:00 0°C° 0 mm 1 mps 661 mmHg 55%
    10:00 +1°C° 0 mm 1 mps 661 mmHg 54%
    11:00 +2°C° 0 mm 1 mps 661 mmHg 52%
    12:00 +3°C° 0 mm 1 mps 660 mmHg 50%
    13:00 +3°C° 0 mm 1 mps 660 mmHg 51%
    14:00 +3°C° 0 mm 1 mps 660 mmHg 52%
    15:00 +3°C° 0 mm 1 mps 660 mmHg 53%
    16:00 +2°C° 0 mm 1 mps 660 mmHg 57%
    17:00 0°C° 0 mm 1 mps 659 mmHg 60%
    18:00 -1°C° 0 mm 1 mps 659 mmHg 63%
    19:00 -1°C° 0 mm 1 mps 660 mmHg 60%
    20:00 -1°C° 0 mm 1 mps 660 mmHg 57%
    21:00 -3°C° 0 mm 2 mps 660 mmHg 55%
    22:00 -3°C° 0 mm 2 mps 660 mmHg 52%
    23:00 -3°C° 0 mm 2 mps 660 mmHg 49%

    20 January, Sunday

    Time Temperature Precipitation Wind Pressure Humidity
    00:00 -4°C° 0 mm 2 mps 660 mmHg 46%
    01:00 -4°C° 0 mm 2 mps 660 mmHg 43%
    02:00 -4°C° 0 mm 2 mps 660 mmHg 41%
    03:00 -4°C° 0 mm 2 mps 660 mmHg 39%
    04:00 -4°C° 0 mm 2 mps 660 mmHg 39%
    05:00 -4°C° 0 mm 2 mps 660 mmHg 38%
    06:00 -4°C° 0 mm 2 mps 660 mmHg 37%
    07:00 -3°C° 0 mm 2 mps 661 mmHg 37%
    08:00 0°C° 0 mm 1 mps 661 mmHg 38%
    09:00 +1°C° 0 mm 1 mps 662 mmHg 38%
    10:00 +2°C° 0 mm 1 mps 662 mmHg 38%
    11:00 +3°C° 0 mm 1 mps 661 mmHg 37%
    12:00 +4°C° 0 mm 1 mps 661 mmHg 37%
    13:00 +4°C° 0 mm 1 mps 661 mmHg 39%
    14:00 +4°C° 0 mm 1 mps 661 mmHg 41%
    15:00 +3°C° 0 mm 1 mps 661 mmHg 42%
    16:00 +2°C° 0 mm 1 mps 660 mmHg 46%
    17:00 +1°C° 0 mm 1 mps 660 mmHg 49%
    18:00 -2°C° 0 mm 0 mps 660 mmHg 53%
    19:00 -1°C° 0 mm 1 mps 661 mmHg 52%
    20:00 -1°C° 0 mm 1 mps 661 mmHg 51%
    21:00 -1°C° 0 mm 1 mps 661 mmHg 51%
    22:00 -1°C° 0 mm 1 mps 661 mmHg 50%
    23:00 -1°C° 0 mm 1 mps 661 mmHg 50%

    21 January, Monday

    Time Temperature Precipitation Wind Pressure Humidity
    00:00 -1°C° 0 mm 1 mps 661 mmHg 49%
    01:00 -2°C° 0 mm 1 mps 661 mmHg 49%
    02:00 -2°C° 0 mm 1 mps 661 mmHg 49%
    03:00 -2°C° 0 mm 1 mps 661 mmHg 50%
    04:00 -2°C° 0 mm 1 mps 661 mmHg 50%
    05:00 -2°C° 0 mm 1 mps 661 mmHg 50%
    06:00 -3°C° 0 mm 1 mps 661 mmHg 50%
    07:00 -2°C° 0 mm 1 mps 661 mmHg 49%
    08:00 -1°C° 0 mm 1 mps 661 mmHg 47%
    09:00 -1°C° 0 mm 0 mps 662 mmHg 46%
    10:00 +1°C° 0 mm 1 mps 661 mmHg 44%
    11:00 +2°C° 0 mm 1 mps 661 mmHg 42%
    12:00 +2°C° 0 mm 1 mps 661 mmHg 41%
    13:00 +1°C° 0 mm 2 mps 660 mmHg 42%
    14:00 +1°C° 0 mm 2 mps 660 mmHg 44%
    15:00 +1°C° 0 mm 2 mps 659 mmHg 46%
    16:00 +1°C° 0 mm 1 mps 659 mmHg 50%
    17:00 0°C° 0 mm 1 mps 659 mmHg 54%
    18:00 -3°C° 0 mm 0 mps 659 mmHg 58%
    19:00 -2°C° 0 mm 1 mps 659 mmHg 57%
    20:00 -2°C° 0 mm 1 mps 659 mmHg 57%
    21:00 -2°C° 0 mm 1 mps 659 mmHg 56%
    22:00 -2°C° 0 mm 1 mps 659 mmHg 54%
    23:00 -2°C° 0 mm 1 mps 659 mmHg 51%

    22 January, Tuesday

    Time Temperature Precipitation Wind Pressure Humidity
    00:00 -2°C° 0 mm 1 mps 659 mmHg 49%
    01:00 -2°C° 0 mm 1 mps 659 mmHg 48%
    02:00 -2°C° 0 mm 1 mps 658 mmHg 46%
    03:00 -2°C° 0 mm 1 mps 658 mmHg 44%
    04:00 -2°C° 0 mm 1 mps 658 mmHg 43%
    05:00 -4°C° 0 mm 2 mps 658 mmHg 41%
    06:00 -5°C° 0 mm 2 mps 658 mmHg 40%
    07:00 -3°C° 0 mm 2 mps 659 mmHg 38%
    08:00 -2°C° 0 mm 2 mps 659 mmHg 37%
    09:00 +1°C° 0 mm 1 mps 659 mmHg 36%
    10:00 +2°C° 0 mm 1 mps 659 mmHg 34%
    11:00 +4°C° 0 mm 1 mps 659 mmHg 33%
    12:00 +5°C° 0 mm 1 mps 659 mmHg 31%
    13:00 +5°C° 0 mm 1 mps 659 mmHg 32%
    14:00 +5°C° 0 mm 1 mps 659 mmHg 33%
    15:00 +4°C° 0 mm 2 mps 659 mmHg 33%
    16:00 +4°C° 0 mm 1 mps 659 mmHg 37%
    17:00 +2°C° 0 mm 1 mps 659 mmHg 40%
    18:00 +1°C° 0 mm 1 mps 660 mmHg 44%
    19:00 0°C° 0 mm 1 mps 660 mmHg 44%
    20:00 0°C° 0 mm 1 mps 660 mmHg 44%
    21:00 0°C° 0 mm 1 mps 660 mmHg 45%
    22:00 0°C° 0 mm 1 mps 660 mmHg 45%
    23:00 -2°C° 0 mm 2 mps 660 mmHg 45%
    Show more